TimeCDT,TemperatureF,Dew PointF,Humidity,Sea Level PressureIn,VisibilityMPH,Wind Direction,Wind SpeedMPH,Gust SpeedMPH,PrecipitationIn,Events,Conditions,WindDirDegrees,DateUTC
12:15 AM,78.8,68.0,69,29.82,10.0,SSW,15.0,23.0,N/A,,Clear,200,2013-09-19 05:15:00
12:35 AM,77.0,68.0,74,29.82,10.0,South,15.0,23.0,N/A,,Clear,190,2013-09-19 05:35:00
12:55 AM,77.0,68.0,74,29.83,10.0,SSW,12.7,20.7,N/A,,Mostly Cloudy,200,2013-09-19 05:55:00
1:15 AM,78.8,68.0,69,29.83,10.0,SSW,16.1,23.0,N/A,,Overcast,200,2013-09-19 06:15:00
1:35 AM,77.0,68.0,74,29.83,10.0,SSW,13.8,21.9,N/A,,Overcast,200,2013-09-19 06:35:00
1:55 AM,77.0,68.0,74,29.83,10.0,South,12.7,19.6,N/A,,Mostly Cloudy,190,2013-09-19 06:55:00
2:15 AM,77.0,68.0,74,29.83,10.0,South,10.4,18.4,N/A,,Mostly Cloudy,190,2013-09-19 07:15:00
2:35 AM,75.2,68.0,78,29.83,10.0,South,11.5,-,N/A,,Mostly Cloudy,180,2013-09-19 07:35:00
2:55 AM,75.2,68.0,78,29.83,10.0,South,10.4,16.1,N/A,,Mostly Cloudy,190,2013-09-19 07:55:00
3:15 AM,75.2,68.0,78,29.82,10.0,South,10.4,17.3,N/A,,Mostly Cloudy,190,2013-09-19 08:15:00
3:35 AM,75.2,68.0,78,29.82,10.0,South,11.5,-,N/A,,Scattered Clouds,190,2013-09-19 08:35:00
3:55 AM,75.2,68.0,78,29.82,10.0,South,10.4,17.3,N/A,,Scattered Clouds,190,2013-09-19 08:55:00
4:15 AM,75.2,68.0,78,29.82,10.0,South,9.2,16.1,N/A,,Mostly Cloudy,190,2013-09-19 09:15:00
4:35 AM,73.4,68.0,83,29.82,10.0,South,9.2,-,N/A,,Mostly Cloudy,190,2013-09-19 09:35:00
4:55 AM,73.4,68.0,83,29.82,10.0,South,10.4,-,N/A,,Partly Cloudy,190,2013-09-19 09:55:00
5:15 AM,73.4,68.0,83,29.81,10.0,South,10.4,-,N/A,,Clear,180,2013-09-19 10:15:00
5:35 AM,73.4,68.0,83,29.81,10.0,South,10.4,-,N/A,,Clear,190,2013-09-19 10:35:00
5:55 AM,73.4,68.0,83,29.80,10.0,South,11.5,17.3,N/A,,Clear,190,2013-09-19 10:55:00
6:15 AM,73.4,68.0,83,29.81,10.0,South,11.5,-,N/A,,Clear,190,2013-09-19 11:15:00
6:35 AM,71.6,68.0,88,29.81,10.0,South,11.5,18.4,N/A,,Clear,190,2013-09-19 11:35:00
6:55 AM,71.6,68.0,88,29.81,10.0,South,12.7,-,N/A,,Clear,190,2013-09-19 11:55:00
7:15 AM,71.6,68.0,88,29.81,10.0,SSW,13.8,20.7,N/A,,Clear,200,2013-09-19 12:15:00
7:55 AM,73.4,66.2,78,29.81,10.0,South,15.0,23.0,N/A,,Clear,190,2013-09-19 12:55:00
8:15 AM,75.2,68.0,78,29.81,10.0,SSW,12.7,19.6,N/A,,Scattered Clouds,200,2013-09-19 13:15:00
8:55 AM,77.0,66.2,69,29.81,10.0,SSW,13.8,20.7,N/A,,Mostly Cloudy,210,2013-09-19 13:55:00
9:15 AM,78.8,66.2,65,29.81,10.0,SSW,17.3,23.0,N/A,,Scattered Clouds,210,2013-09-19 14:15:00
9:55 AM,80.6,66.2,61,29.82,10.0,SW,16.1,-,N/A,,Clear,220,2013-09-19 14:55:00
10:15 AM,82.4,66.2,58,29.83,10.0,SW,13.8,26.5,N/A,,Partly Cloudy,220,2013-09-19 15:15:00
10:35 AM,82.4,66.2,58,29.83,10.0,SW,18.4,-,N/A,,Partly Cloudy,220,2013-09-19 15:35:00
11:35 AM,82.4,66.2,58,29.84,10.0,SW,12.7,21.9,N/A,,Clear,220,2013-09-19 16:35:00
12:35 PM,80.6,68.0,65,29.84,10.0,SW,12.7,21.9,N/A,,Clear,220,2013-09-19 17:35:00
12:55 PM,82.4,68.0,62,29.82,10.0,SSW,13.8,21.9,N/A,,Partly Cloudy,200,2013-09-19 17:55:00
1:15 PM,82.4,68.0,62,29.82,10.0,SSW,10.4,16.1,N/A,,Clear,210,2013-09-19 18:15:00
1:35 PM,84.2,66.2,55,29.82,10.0,WSW,11.5,23.0,N/A,,Clear,240,2013-09-19 18:35:00
1:55 PM,86.0,68.0,55,29.81,10.0,WSW,16.1,-,N/A,,Clear,250,2013-09-19 18:55:00
2:15 PM,86.0,68.0,55,29.81,10.0,WSW,10.4,-,N/A,,Partly Cloudy,250,2013-09-19 19:15:00
2:35 PM,86.0,68.0,55,29.79,10.0,SSW,8.1,17.3,N/A,,Mostly Cloudy,210,2013-09-19 19:35:00
2:55 PM,87.8,68.0,52,29.77,10.0,SSW,11.5,-,N/A,,Scattered Clouds,210,2013-09-19 19:55:00
3:15 PM,87.8,68.0,52,29.75,10.0,SSW,12.7,-,N/A,,Clear,200,2013-09-19 20:15:00
3:35 PM,87.8,68.0,52,29.74,10.0,SSW,12.7,-,N/A,,Partly Cloudy,200,2013-09-19 20:35:00
3:55 PM,86.0,68.0,55,29.74,10.0,South,10.4,-,N/A,,Mostly Cloudy,190,2013-09-19 20:55:00
4:15 PM,86.0,68.0,55,29.71,10.0,South,11.5,-,N/A,,Scattered Clouds,190,2013-09-19 21:15:00
4:35 PM,86.0,68.0,55,29.70,10.0,South,9.2,-,N/A,,Clear,190,2013-09-19 21:35:00
4:55 PM,82.4,66.2,58,29.79,9.0,WNW,36.8,47.2,N/A,,Mostly Cloudy,290,2013-09-19 21:55:00
5:15 PM,64.4,62.6,94,29.83,0.2,WNW,21.9,36.8,N/A,Rain,Heavy Rain,290,2013-09-19 22:15:00
5:55 PM,64.4,62.6,94,29.87,4.0,Variable,4.6,13.8,0.59,Rain,Light Rain,0,2013-09-19 22:55:00
6:15 PM,64.4,62.6,94,29.85,6.0,Calm,Calm,-,N/A,Rain,Light Rain,0,2013-09-19 23:15:00
6:35 PM,66.2,62.6,88,29.80,4.0,ENE,4.6,-,N/A,Rain,Light Rain,60,2013-09-19 23:35:00
6:55 PM,64.4,62.6,94,29.83,4.0,South,10.4,-,0.10,Rain,Light Rain,190,2013-09-19 23:55:00
7:15 PM,66.2,62.6,88,29.80,4.0,SSE,9.2,-,N/A,Rain,Light Rain,160,2013-09-20 00:15:00
7:35 PM,66.2,64.4,94,29.79,8.0,SSE,5.8,-,N/A,Rain,Light Rain,160,2013-09-20 00:35:00
7:55 PM,64.4,62.6,94,29.79,10.0,South,3.5,-,0.11,Rain,Light Rain,190,2013-09-20 00:55:00
8:15 PM,64.4,64.4,100,29.81,10.0,SW,5.8,-,N/A,Rain,Light Rain,230,2013-09-20 01:15:00
8:35 PM,64.4,64.4,100,29.83,10.0,SSW,8.1,-,N/A,,Overcast,210,2013-09-20 01:35:00
8:55 PM,66.2,64.4,94,29.86,10.0,West,8.1,15.0,0.01,,Overcast,270,2013-09-20 01:55:00
9:15 PM,66.2,64.4,94,29.86,10.0,West,6.9,-,N/A,,Overcast,260,2013-09-20 02:15:00
9:35 PM,66.2,64.4,94,29.86,10.0,WSW,4.6,-,N/A,,Mostly Cloudy,250,2013-09-20 02:35:00
9:55 PM,66.2,64.4,94,29.87,10.0,West,5.8,-,N/A,,Mostly Cloudy,270,2013-09-20 02:55:00
10:15 PM,66.2,64.4,94,29.85,10.0,West,5.8,-,N/A,,Mostly Cloudy,260,2013-09-20 03:15:00
10:55 PM,66.2,64.4,94,29.87,10.0,SW,4.6,-,N/A,,Overcast,220,2013-09-20 03:55:00
11:15 PM,66.2,64.4,94,29.88,10.0,SW,5.8,-,N/A,,Overcast,220,2013-09-20 04:15:00
11:35 PM,66.2,64.4,94,29.88,10.0,SSW,5.8,-,N/A,,Overcast,210,2013-09-20 04:35:00
11:55 PM,66.2,64.4,94,29.88,10.0,SSW,8.1,-,N/A,,Overcast,210,2013-09-20 04:55:00